Regional Weather Roundup
Issued by NWS Wakefield, VA

Home | Current Version | Previous Version | Text Only | Print | Product List | Glossary Off
Versions: 1 2 3 4 5 6 7 8 9 10 11 12 13 14 15 16 17 18 19 20 21 22 23 24 25 26 27 28 29 30 31 32 33 34 35 36 37 38 39 40 41 42 43 44 45 46 47 48 49 50

000
ASUS41 KAKQ 181914
RWRAKQ

REGIONAL WEATHER ROUNDUP
NATIONAL WEATHER SERVICE WAKEFIELD VA
300 PM EDT SAT APR 18 2015

Note: "fair" indicates few or no clouds below 12,000 feet with no
significant weather and/or obstructions to visibility. * = Denotes
station may not report precipitation (e.g., rain,snow,etc.),
thunder or fog.

VAZ042-051-052>054-056-182000-
NORTHERN VIRGINIA

CITY           SKY/WX    TMP DP  RH WIND       PRES   REMARKS
WASH NATIONAL  MOSUNNY   82  46  28 N6        29.96F
DULLES         MOSUNNY   78  44  29 NW5       29.97F
FORT BELVOIR   SUNNY     80  44  28 NW8       29.95F
QUANTICO       SUNNY     76  53  44 E7        29.97F
FREDERICKSBRG* MOSUNNY   80  48  32 NE3       29.95F
STAFFORD*      MOSUNNY   78  41  26 NE7       30.00F HAZE
WARRENTON      SUNNY     80  48  32 E3        29.97F
CULPEPER*      SUNNY     81  45  28 N8        29.98F
MANASSAS*      SUNNY     79  43  27 N9        29.97F
LEESBURG*      SUNNY     79  48  34 N7        29.98F
WINCHESTER     SUNNY     79  32  18 E5        29.98F
FRONT ROYAL*   FAIR      77  48  36 E3        29.97F
LURAY*         FAIR      79  46  31 E3        29.99S
$$

VAZ048-049-060>072-079>083-182000-
CENTRAL AND SOUTH CENTRAL VIRGINIA

CITY           SKY/WX    TMP DP  RH WIND       PRES   REMARKS
RICHMOND       PTSUNNY   82  52  35 VRB3      29.95F
CHESTERFIELD*  NOT AVBL
PETERSBURG*    MOSUNNY   82  50  33 NE10      29.96F
HANOVER        SUNNY     80  47  31 CALM      29.97F
TAPPAHANNOCK*  SUNNY     79  38  22 NW6       29.97F
QUINTON*       FAIR      79  53  40 NE6       29.95F
CHARLOTTSVILLE SUNNY     77  49  37 SW6       29.97F
GORDONSVILLE*  FAIR      78  49  35 NE6       29.97F
ORANGE*        SUNNY     77  46  33 CALM      30.00F
LOUISA*        SUNNY     81  46  30 NE7       29.97F
BUMPASS*       FAIR      79  46  31 W3        29.97F
FARMVILLE*     SUNNY     82  52  35 N6        29.95F
CREWE*         FAIR      79  52  38 N5        29.96F
FORT PICKETT*  FAIR      78  52  39 W3        29.96F
CHASE CITY*    CLOUDY    82  60  46 CALM      29.97S
CLARKSVILLE*   CLOUDY    79  59  50 S8        29.96F
SOUTH HILL*    MOSUNNY   79  56  45 CALM      30.01F
LAWRENCEVILLE* FAIR      79  57  46 CALM      29.95F
EMPORIA*       MOSUNNY   81  57  44 CALM      29.96F
$$

VAZ088>098-182000-
SOUTHEAST VIRGINIA

CITY           SKY/WX    TMP DP  RH WIND       PRES   REMARKS
NORFOLK        SUNNY     69  60  73 NE9       29.96F
VIRGINIA BEACH MOSUNNY   75  62  64 NE9       29.96F
NORFOLK NAVAL  MOSUNNY   76  61  59 NE12      29.98F
WEST POINT*    SUNNY     84  42  23 N6        29.96F
SALUDA*        FAIR      73  54  50 SE7       29.97F
NEWPORT NEWS   SUNNY     80  55  42 E12       29.96F
LANGLEY AFB    SUNNY     74  58  57 NE10      29.95F
FORT EUSTIS    SUNNY     78  58  50 SW8       29.93F
WILLIAMSBURG*  SUNNY     86  59  39 S8        29.95F
HR EXEC AP*    FAIR      81  61  50 NE8       29.97F
FRANKLIN*      MOSUNNY  N/A N/A N/A NE9       29.95F
WAKEFIELD      MOSUNNY   80  56  43 CALM      29.95F
$$

VAZ020-022-025-037-045-182000-
WEST CENTRAL AND SOUTHWEST VIRGINIA

CITY           SKY/WX    TMP DP  RH WIND       PRES   REMARKS
STAUNTON*      SUNNY     76  44  31 N8        30.01F
WAYNESBORO*    FAIR      74  47  38 N6        30.00F
HOT SPRINGS VA PTSUNNY   68  44  42 SW3       30.08S
LYNCHBURG      MOSUNNY   77  48  35 CALM      30.00S
DANVILLE       PTSUNNY   81  58  45 VRB3      29.97F
SOUTH BOSTON*  FAIR      79  53  40 MISG      29.97S
MARTINSVILLE   PTSUNNY   82  53  37 CALM      30.00F
ROANOKE        PTSUNNY   79  51  37 N6        30.00F
BLACKSBURG     PTSUNNY   74  46  36 S3        30.05F
DUBLIN*        CLOUDY    77  45  32 SW3       30.03F
MARION*        PTSUNNY   75  49  40 SE5       30.05S
HILLSVILLE*    PTSUNNY   72  53  50 SW3       30.03F
RICHLANDS*     FAIR      75  40  28 NE5       30.03F
WISE*            N/A     75  43  31 CALM      30.04F
ABINGDON*      CLOUDY    78  49  35 CALM      30.00F
$$

MDZ021>025-VAZ099-100-182000-
SOUTHERN MARYLAND AND THE DELMARVA PENINSULA

CITY           SKY/WX    TMP DP  RH WIND       PRES   REMARKS
PATUXENT RIVER MOSUNNY   75  52  44 NE10      29.98F
BAY BRIDGE APT   N/A     72  45  37 W3        29.98F
LEONARDTOWN    SUNNY     75  45  33 NE8       29.99F
DOVER          SUNNY     74  53  47 E7        29.93F
GEORGETOWN     SUNNY     74  50  42 S9        29.97F
EASTON         MOSUNNY   77  55  47 W7        30.01F
CAMBRIDGE      NOT AVBL
SALISBURY      SUNNY     75  49  39 W5        29.97F
OCEAN CITY     SUNNY     66  49  54 E7        29.98F
WALLOPS ISLAND SUNNY     69  55  60 NE12      29.99S
ACCOMACK*      MOSUNNY   72  55  56 E6        29.98S
$$

NCZ012>017-030>032-182000-
NORTH CENTRAL AND EASTERN NORTH CAROLINA

CITY           SKY/WX    TMP DP  RH WIND       PRES   REMARKS
ROANOKE RAPIDS FAIR      81  61  50 SE5       29.95F
RALEIGH        PTSUNNY   79  59  50 E9        29.96F
ELIZABETH CITY LGT RAIN  73  62  68 NE9       29.95F
AHOSKIE*       PTSUNNY   78  60  53 E3        29.94F
EDENTON*       MOSUNNY   80  58  46 S3        29.95S
CURRITUCK*     MOSUNNY   72  60  65 E10       29.97F
KILL DEVIL HLS MOSUNNY   65  59  80 NE6       29.95F
MANTEO         MOSUNNY   71  63  76 NE9       29.95F
CAPE HATTERAS  PTSUNNY   68  62  81 S6        29.95F
TARBORO*       MOCLDY    83  60  45 SE5       29.95F
GOLDSBORO      PTSUNNY   77  64  64 CALM      29.94F
WASHINGTON     MOSUNNY   78  65  63 S6        29.95F
GREENVILLE     MOSUNNY   81  61  50 CALM      29.97F
NEW BERN       CLOUDY    75  66  73 S5        29.97F
WILMINGTON     CLOUDY    73  64  73 SE6       29.97F
$$

VAZ048-182000-
ELSEWHERE

CITY           SKY/WX    TMP DP  RH WIND       PRES   REMARKS
HARRISBURG PA  MOSUNNY   79  40  24 W5        29.93F
BALTIMORE      MOSUNNY   76  47  35 CALM      29.95F
ANNAPOLIS      SUNNY     70  48  45 SE9       29.97F
ANDREWS AFB    SUNNY     77  47  34 NW7       29.95F
PHILADELPHIA   PTSUNNY   79  34  19 SW7       29.93F
HENDERSON NC   PTSUNNY   78  56  45 CALM      29.97F
GREENSBORO     PTSUNNY   77  58  51 E7        29.96F
ROCKY MOUNT    PTSUNNY   81  62  52 S8        29.96F
$$

VAZ100-182000-
MARINE

STATION/POSITION TIME  TEMP    WIND        PRES    WAVE   SWELL
                       AIR SEA DIR/SP/G            HT/PER HT/PER
                 (UTC) (F)     (DEG/KT/KT) (MB)    (FT/S) (FT/S)
CAPE MAY NJ      1800   63 54  170/ 11/ 12 1015.3F
LEWES DE         1800   66 51  130/  4/  8 1015.5F
15NM E FENWICK I 1850   55 52              1014.8F   3/ 8
OCEAN-CITY-INLET 1800   63 54   80/  5/  7 1015.5F
WACHAPREAGUE VA  1800   66 69   50/ 10/ 13 1015.5S
THOMAS POINT MD  1900   69 54  180/  3/  3 1015.6F
GOOSES REEF MD   1900   63 59   30/  2/  2   N/A     0
COVE POINT MD    1800   60     350/  7/  8 1015.5F
SOLOMONS ISLAND  1800      56                N/A
BISHOPS HEAD MD  1800   66 66  290/  8/ 10 1014.9F
PINEY POINT MD   1806          220/  5/  6   N/A
CAMBRIDGE MD     1800   69 58  330/  6/  7 1015.1F
LEWISETTA VA     1800   68 59              1015.4S
RAPPAHANNOCK LGT 1800          330/ 10/ 10 1015.8F
STINGRAY PT      1900   62 59   50/  4/  4 1018.0R   0
YORK RVR RNG VA  1800   65      70/ 10/ 11 1014.8F
YORKTOWN VA      1800   70 58  100/  7/  8 1015.1F
DOMINION TERM VA 1800   67      80/  9/ 11 1015.5F
KIPTOPEKE VA     1800      60  330/  3/  4   N/A
CHES BAY BRIDGE  1806   60 56   CALM  /  1 1015.1F
CAPE HENRY VA    1800   64     340/  3/  5 1014.4F
CHESAPEAKE LGHT  1800   58      50/ 10/ 10 1016.0F
WILLOUBY STN VA  1800   62      80/  7/  8 1016.0F
S CRANEY ISL VA  1800           30/  6/  6 1015.3F
CAPE HENRY BUOY  1828      57                N/A     3/ 8   2/11
1ST LANDING BUOY 1900   59      10/  6/  8 1014.8F   1/ 3
OFFSHORE WE BUOY 1811      52                N/A     3/ 8   3/ 8
64NM E OF VA BCH 1850   58 57   50/  2/  2 1014.4F   4/ 7   3/ 7
DUCK PIER NC     1800   58 54   30/  9/ 10 1014.3F
44056 DUCK FRF   1811      57                N/A     3/ 8   2/11
OREGON INLET NC  1800   68 58   80/  5/  8 1015.0F
HATTERAS NC      1806   71 66  350/  3/  5 1014.8F
DIAMOND SHLS NC  1850   70 75   30/  8/ 10 1014.5F   4/ 8   5/ 8
CAPE LOOKOUT NC  1900   70     140/  2/  2 1014.4F
$$



USA.gov is the U.S. government's official web portal to all federal, state and local government web resources and services.